Regional Weather Roundup
Issued by NWS Pendleton, OR

Home | Current Version | Previous Version | Text Only | Print | Product List | Glossary On
Versions: 1 2 3 4 5 6 7 8 9 10 11 12 13 14 15 16 17 18 19 20 21 22 23 24 25 26 27 28 29 30 31 32 33 34 35 36 37 38 39 40 41 42 43 44 45 46 47 48 49 50
000
ASUS46 KPDT 240525
RWRPDT
PENDLETON REGIONAL WEATHER ROUNDUP
NATIONAL WEATHER SERVICE PENDLETON OREGON
1000 PM PDT SUN JUL 23 2017

NOTE: FAIR INDICATES FEW OR NO CLOUDS BELOW 12,000 FEET WITH NO
SIGNIFICANT WEATHER AND/OR OBSTRUCTIONS TO VISIBILITY.

# INDICATES UNOFFICIAL STATION AND DATA

WAZ520-240610-
EAST SLOPES OF WASHINGTON CASCADES

CITY            SKY/WX      TMP DP  RH  WIND    PRES   REMARKS
#BULLFROG       N/A         68  53  59  W9      N/A
#CLE ELUM HS    N/A         65  54  68  N6      29.91R
#CLE ELUM LAKE  N/A         63  51  65  N1      30.01R
#EASTON DOT     N/A         61  54  78  N2      N/A
#ELK HTS DOT    N/A         67  67  100 SW5     N/A
#GLENWOOD       N/A         61  53  75  CALM    29.79R
#NELSON 3SW     N/A         64  47  54  CALM    30.06R
#NILE           N/A         67  51  56  SE2     29.15R
#TEANAWAY 4NE   N/A         65  55  70  CALM    N/A
#TROUT LAKE 1NE N/A         72  51  48  NW6     29.80R
#TROUT LAKE 1E  N/A         72  49  44  CALM    29.93R
$$

WAZ521-240610-
SIMCOE HIGHLANDS

CITY            SKY/WX      TMP DP  RH  WIND    PRES   REMARKS
#BICKLETON HS   N/A         74  45  35  N15     29.87F
#CENTERVILLE 1SWN/A         72  55  55  W12     29.73R
#GOLDENDALE 1NE N/A         74  42  32  CALM    N/A
#GOLDENDALE 4W  N/A         74  18  12  W5      29.91R
#GOODNOE HILLS  N/A         77  58  52  NW13    N/A
#LYLE 6NE       N/A         72  57  59  SW10    29.80R
#PITT 4SE       N/A         68  55  63  SW7     29.81R
$$

WAZ026-240610-
KITTITAS VALLEY

CITY            SKY/WX      TMP DP  RH  WIND    PRES   REMARKS
ELLENSBURG AP   CLEAR       70  52  53  NW25G31 29.91R
#ELLENSBURG CWU N/A         69  53  57  NW20    29.75S
#ELLENSBURG 3NE N/A         67  54  63  N12     27.97F
#ELLENSBURG 1E  N/A         70  53  55  NW3     29.83S
#KITTITAS 3S    N/A         68  53  59  N3      29.79R
#MANASTASH RDG  N/A         66  65  97  N17     N/A
#ROCKY CYN DOT  N/A         70  50  49  W21G33  N/A
#RYEGRASS DOT   N/A         66  52  61  W14G24  N/A
$$

WAZ027-240610-
YAKIMA VALLEY

CITY            SKY/WX      TMP DP  RH  WIND    PRES   REMARKS
SUNNYSIDE AP    N/A         73  45  37  SE5     29.78R
YAKIMA AIRPORT  CLEAR       79  46  31  W8      29.85R
YAKIMA-VAGABOND CLEAR       78  33  19  N13     29.86R
#DONALD 2NE     N/A         79  18  10  W10     28.66R
#GRANDVIEW      N/A         80  38  22  NW2     29.76R
#MABTON         N/A         79  45  30  SW3     29.79R
#MOXEE 2E       N/A         80  N/A N/A N15     29.78R
#NACHES 2SW     N/A         71  49  46  W15G24  29.88R
#OUTLOOK DOT    N/A         81  35  19  CALM    29.76R
#PARKER DOT     N/A         80  41  25  S10     29.81R
#TERRACE HTS    N/A         79  37  22  N9      29.72R
#TOPPENISH      N/A         80  42  26  N5      29.68R
#I82 S UMTANUM RN/A         73  42  33  NW8     N/A
#UNION GAP DOT  N/A         78  42  28  N10     29.86R
#W YAKIMA       N/A         72  48  43  W3      29.78R
#WHITE SWAN 5E  N/A         77  52  42  CALM    29.76R
#WILEY CITY 3W  N/A         71  46  41  CALM    29.83R
#ZILLAH DOT     N/A         82  33  17  NW9     N/A
$$

WAZ028-240610-
LOWER COLUMBIA BASIN...WASHINGTON

CITY            SKY/WX      TMP DP  RH  WIND    PRES   REMARKS
PASCO           CLEAR       81  45  28  NW10    29.76R
PROSSER AWOS    N/A         75  45  34  W7      29.82R
RICHLAND AWOS   CLEAR       85  41  21  NW15G28 29.77R
#BENTON CITY    N/A         83  48  30  W2      29.62R
#CONNELL 5N     N/A         75  52  45  W2      29.72R
#CONNELL 5NW    N/A         73  54  51  W2      29.69R
#ELTOPIA 6NW    N/A         76  52  43  W2      28.77R
#KAHLOTUS       N/A         81  49  33  N16     29.71R
#KENNEWICK 3S   N/A         83  41  23  NW3     29.74R
#PATERSON       N/A         80  52  38  CALM    29.71R
#PROSSER DOT    N/A         80  39  23  SW7     29.79R
#SAGEMOOR 2W    N/A         76  49  39  NW6     29.59R
#TOUCHET 2S     N/A         83  52  34  NW7     29.71R
#WEST PASCO     N/A         84  45  26  N6      29.73R
$$

WAZ029-240610-
FOOTHILLS OF THE BLUES...WASHINGTON

CITY            SKY/WX      TMP DP  RH  WIND    PRES   REMARKS
WALLA WALLA AP  CLEAR       83  51  33  E7      29.78S
#CLYDE 6NW      N/A         81  47  30  CALM    29.71R
#DAYTON SCHOOL  N/A         77  47  35  N2      29.83S
#DELANEY DOT    N/A         76  48  37  CALM    29.78R
#LOWDEN 2SE     N/A         78  54  43  W3      29.72R
#PLEASANT VIEW 1N/A         83  46  27  W7      29.72S
#PRESCOTT       N/A         72  60  66  CALM    29.70R
#WHITMAN COLLEGEN/A         85  53  33  S6      29.76R
#WAITSBURG 5S   N/A         77  49  37  CALM    29.80R
#WAITSBURG 6SSE N/A         75  49  40  E3      29.75S
#WALLA WALLA 5E N/A         74  51  44  N2      N/A
#WHITMAN MISSIONN/A         81  56  42  CALM    29.73R
$$

WAZ030-240610-
BLUE MOUNTAINS...WASHINGTON

CITY            SKY/WX      TMP DP  RH  WIND    PRES   REMARKS
#DIXIE 5SE      N/A         81  47  30  SW1     29.84S
$$

ORZ009-041-WAZ024-240610-
COLUMBIA RIVER GORGE

CITY            SKY/WX      TMP DP  RH  WIND    PRES   REMARKS
HOOD RIVER AP   CLEAR       70  55  59  CALM    29.88R
THE DALLES AP   CLEAR       79  58  49  W9      29.80S
#ARLINGTON AIRPON/A         79  58  49  W12     29.76R
#CELILO DOT     N/A         83  58  43  SW8     N/A
#LYLE           N/A         79  59  50  W7      29.82R
#MARYHILL       N/A         78  54  43  N10G29  29.67R
#RUFUS DOT      N/A         84  N/A N/A W16     N/A
#SMITHVILLE     N/A         79  58  49  NW15G24 29.78S

$$

ORZ510-240610-
NORTH CENTRAL OREGON

CITY            SKY/WX      TMP DP  RH  WIND    PRES   REMARKS
#ANTELOPE       N/A         75  45  34  CALM    29.61R
#CHENOWITH 1W   N/A         71  57  61  W24     N/A
#COW CYN RST AREN/A         77  39  25  N6      N/A
#DUFUR          N/A         71  52  51  CALM    29.76R
#DUFUR 9E       N/A         73  55  53  W14     29.81S
#GRASS VALLEY 1SN/A         74  52  46  NW7     29.93S
#KENT DOT       N/A         72  44  37  NW6     N/A
#MAUPIN SCHOOL  N/A         80  54  41  W2      29.89R
#MORO SCHOOL    N/A         76  60  58  NW13    29.85F
#SHANIKO 5WSW   N/A         73  42  33  N15     N/A
#SHANIKO 4NW    N/A         71  41  34  N13     29.99R
#TYGH VALLEY 2NEN/A         82  47  29  CALM    29.76R
#WAPANITIA AIRPON/A         73  53  49  W6      29.78R
#WASCO 5NE      N/A         75  58  56  N8      29.74R
$$

ORZ511-240610-
CENTRAL OREGON

CITY            SKY/WX      TMP DP  RH  WIND    PRES   REMARKS
BEND AIRPORT    PTCLDY      73  39  29  CALM    30.00R
MADRAS AIRPORT  PTCLDY      72  45  38  NW8     29.96R
PRINEVILLE AP   PTCLDY      72  45  38  NW6     29.98R
REDMOND AIRPORT PTCLDY      77  28  16  N8      29.96R
#ASHWOOD SCHOOL N/A         76  43  31  CALM    29.91R
#BEND 1SW       N/A         72  47  41  CALM    N/A
#BEND-AWBREY    N/A         75  45  34  CALM    29.77R
#BEND-KIM LN    N/A         70  54  57  CALM    29.71R
#CULVER         N/A         74  47  38  N1      29.72R
#CULVER 8W      N/A         76  40  27  CALM    29.98R
#LAKE BILLY CHINN/A         77  N/A N/A N8      29.89R
#MADRAS 4S      N/A         73  14  10  CALM    N/A
#POWELL BUTTE   N/A         74  45  35  CALM    29.96R
#PRINEVILLE     N/A         75  49  40  CALM    29.84R
#PRINEVILLE 3N  N/A         74  51  44  N3      29.85R
#WARM SPRINGS   N/A         78  50  38  CALM    29.69R

$$


ORZ509-240610-
EAST SLOPES OF OREGON CASCADES

CITY            SKY/WX      TMP DP  RH  WIND    PRES   REMARKS
SISTERS AWOS    N/A         75  54  48  N5      29.96R
#BLUE BOX PASS  N/A         62  N/A N/A NW3     N/A
#CAMP SHERMAN   N/A         65  54  68  CALM    29.85S
#LA PINE 4NW    N/A         74  50  43  CALM    29.80R
#LAVA BUTTE DOT N/A         72  43  35  CALM    N/A
#SISTERS ODOT   N/A         75  53  46  CALM    N/A
#SISTERS 3N     N/A         69  51  53  CALM    29.90R
#SUNRIVER       N/A         74  48  40  NE1     29.95R
#TUMALO 3W      N/A         75  54  48  CALM    29.64R
#WANOGA BUTTE D N/A         68  48  49  NE5     N/A

$$

ORZ044-240610-
LOWER COLUMBIA BASIN...OREGON

CITY            SKY/WX      TMP DP  RH  WIND    PRES   REMARKS
HERMISTON       PTCLDY      85  58  40  SW7     29.76R
#BOARDMAN SCHOOLN/A         85  49  29  W1      29.75R
#BOARDMAN 8SW   N/A         79  62  56  SW2     29.75R
#ECHO 8SW       N/A         83  57  41  SW7     29.78R
#I-84 EX 198 DOTN/A         85  56  37  E8      N/A
#IONE SCHOOL    N/A         80  56  44  SW3     29.77R
#UMATILLA       N/A         85  47  27  CALM    29.66R
$$

ORZ507-240610-
NORTHERN FOOTHILLS OF THE BLUES

CITY            SKY/WX      TMP DP  RH  WIND    PRES   REMARKS
PENDLETON AIRPT PTCLDY      73  42  33  NW9     29.83R
#ADAMS 3WNW     N/A         71  47  42  NE1     29.73R
#ATHENA         N/A         77  47  35  CALM    29.77R
#CAYUSE         N/A         80  51  36  N2      29.73R
#HELIX SCHOOL   N/A         77  47  35  N1      29.74R
#HELIX 3N       N/A         78  47  34  NW1     29.83R
#HOLDMAN 5SE    N/A         79  49  35  CALM    29.82R
#HOLDMAN 6E     N/A         81  46  29  N7      29.54R
#M-F GROVE ELEM N/A         80  48  33  CALM    29.77R
#M-FREEWATER 5SEN/A         75  56  52  NW2     29.82R
#PENDLETON DNTN N/A         79  45  30  CALM    29.80R
#PDT AQUATIC CTRN/A         80  46  30  NW5     29.81R
#PDT SUNRIDGE   N/A         80  48  33  CALM    29.82R
#PENDLETON 7NW  N/A         78  52  40  CALM    29.84R
#PILOT ROCK 1S  N/A         75  45  34  E2      29.86R
#PILOT ROCK     N/A         78  46  32  CALM    29.89R
#TUTUILLA       N/A         70  53  55  CALM    29.87R
#UMAPINE 2E     N/A         77  56  48  SW2     29.74R
#WESTON SCHOOL  N/A         77  48  36  N6      29.76R

$$

ORZ508-240610-
SOUTHERN FOOTHILLS OF THE BLUES

CITY            SKY/WX      TMP DP  RH  WIND    PRES   REMARKS
LEXINGTON       PTCLDY      79  55  44  SW9     29.90R
#AJAX           N/A         76  49  39  S5      30.06R
#CONDON 5W      N/A         71  54  55  CALM    29.97R
#FOSSIL SCHOOL  N/A         77  46  33  N2      29.89R
#HEPPNER EOC    N/A         78  52  40  CALM    29.71R
#HEPPNER 4NE    N/A         74  54  50  W6      29.76R
#LEXINGTON 2SE  N/A         77  54  45  CALM    29.85R
#MIKKALO        N/A         78  54  43  NW9     30.00R
#OLEX 4N        N/A         78  57  48  SW14    29.81R
#RUGGS 5NE      N/A         74  47  38  W7      30.14R
#RUGGS 2SW      N/A         75  50  41  SW2     29.78R

$$

ORZ502-503-240610-
BLUE MOUNTAINS

CITY            SKY/WX      TMP DP  RH  WIND    PRES   REMARKS
MEACHAM         MOCLDY      67  51  56  CALM    30.00R
#BATTLE MTN DOT N/A         72  43  35  CALM    N/A
#GRANITE        N/A         67  46  47  CALM    29.68S
#HARDMAN 10S    N/A         69  42  37  CALM    29.86R
#HEPPNER 15SE   N/A         64  45  50  CALM    29.87R
#LADD CYN SMT   N/A         73  49  43  N2      N/A
#LADD CREEK ODOTN/A         75  51  43  SW3     N/A
#LONG CREEK HS  N/A         68  44  42  CALM    N/A
#N POWDER DOT   N/A         76  54  46  N8      N/A
#PIKES PEAK     N/A         81  47  30  CALM    27.99S
#TOLLGATE       N/A         64  47  54  CALM    29.92R
#TROY SCHOOL    N/A         76  56  50  CALM    29.58R
#UKIAH          N/A         70  48  46  CALM    29.70R
#WESTON 4E      N/A         75  49  40  CALM    29.69S
$$

ORZ505-240610-
JOHN DAY BASIN

CITY            SKY/WX      TMP DP  RH  WIND    PRES   REMARKS
JOHN DAY        CLOUDY      81  47  30  CALM    29.98R
#JOHN DAY KJDY  N/A         78  N/A N/A S1      30.23F
#DAYVILLE SCHOOLN/A         86  45  24  CALM    29.86R
#MITCHELL       N/A         78  54  43  CALM    30.13R
#MITCHELL 8NW   N/A         77  45  32  CALM    29.80R
#MONUMENT HS    N/A         84  43  24  CALM    29.84R
#MT. VERNON 5SE N/A         78  46  32  CALM    29.95R
#SPRAY SCHOOL   N/A         80  N/A N/A CALM    N/A
$$

ORZ506-240610-
OCHOCO AND JOHN DAY HIGHLANDS

CITY            SKY/WX      TMP DP  RH  WIND    PRES   REMARKS
#HORSE RIDGE DO N/A         76  38  25  NW12    N/A
#IZEE 6NW       N/A         72  44  37  CALM    N/A
#PAULINA ODOT   N/A         83  38  20  NW8     N/A
#PINE MTN OBS   N/A         65  40  40  N10     N/A
#PRAIRIE CITY   N/A         79  48  34  CALM    30.09R
#SENECA         N/A         74  N/A N/A CALM    N/A
#SENECA 9NW     N/A         72  42  34  CALM    29.74R
$$

ORZ049-240610-
GRANDE RONDE VALLEY

CITY            SKY/WX      TMP DP  RH  WIND    PRES   REMARKS
LA GRANDE       MOCLDY      75  48  38  CALM    29.91R
#COVE           N/A         73  54  51  N2      29.96R
#COVE SCHOOL    N/A         73  50  44  CALM    29.95R
#COVE 6NW       N/A         74  52  46  CALM    29.76R
#ELGIN 3N       N/A         70  47  44  CALM    29.90R
#ELGIN 1E       N/A         74  50  43  CALM    N/A
#IMBLER SCHOOL  N/A         75  49  40  CALM    29.88R
#ISLAND CITY 4N N/A         64  52  65  CALM    29.96R
#LA GRANDE-LEFFEN/A         77  49  37  N7      29.93R
#UNION 1S       N/A         76  54  46  N2      29.75R
$$

ORZ050-240610-
WALLOWA COUNTY

CITY            SKY/WX      TMP DP  RH  WIND    PRES   REMARKS
JOSEPH AIRPORT  MOCLDY      66  46  48  S3      30.03R
#ENTERPRISE HS  N/A         71  52  51  CALM    29.66R
#IMNAHA SCHOOL  N/A         80  45  29  CALM    29.84R
#IMNAHA 10S     N/A         77  46  33  SW5     29.91R
#JOSEPH         N/A         70  51  51  CALM    29.96R
#JOSEPH 3N      N/A         62  48  60  CALM    30.03R
#JOSEPH 3W      N/A         66  50  56  SW2     29.89R
#LOSTINE        N/A         66  52  61  CALM    29.58R
#LOSTINE 3SE    N/A         65  48  54  CALM    30.02R
#MT HOWARD 8000 N/A         60  41  49  CALM    30.31S
#PROMISE 1S     N/A         69  50  51  CALM    29.84R
#WALLOWA LAKE   N/A         67  49  52  S1      30.06R
#WALLOWA SCHOOL N/A         72  54  53  CALM    29.90R



$$



USA.gov is the U.S. government's official web portal to all federal, state and local government web resources and services.